******** Week 146 almanac for PRN-1 ******** ID: 1 Health: 0 Eccentricity: 0.01130771637 Time of Applicability(s): 405504 Orbital Inclination(rad): 0.9864958542 Rate of Right Ascen(r/s): -7.828897533e-09 SQRT(A) (m 1/2): 5153.628906 Right Ascen at Week(rad): -1.536772738 Argument of Perigee(rad): 0.8823790058 Mean Anom(rad): 2.761719315 Af0(s): 0.0003527195801 Af1(s/s): -1.091394e-11 week: 146 ******** Week 146 almanac for PRN-2 ******** ID: 2 Health: 0 Eccentricity: 0.02067899704 Time of Applicability(s): 405504 Orbital Inclination(rad): 0.9648463519 Rate of Right Ascen(r/s): -8.023191341e-09 SQRT(A) (m 1/2): 5153.634766 Right Ascen at Week(rad): -1.625688572 Argument of Perigee(rad): -1.451437941 Mean Anom(rad): 2.918250145 Af0(s): -0.0005132522095 Af1(s/s): 0 week: 146 ******** Week 146 almanac for PRN-3 ******** ID: 3 Health: 0 Eccentricity: 0.003853321075 Time of Applicability(s): 405504 Orbital Inclination(rad): 0.9725641927 Rate of Right Ascen(r/s): -7.623174678e-09 SQRT(A) (m 1/2): 5153.647461 Right Ascen at Week(rad): -0.5012791556 Argument of Perigee(rad): 0.9698945572 Mean Anom(rad): 1.598505728 Af0(s): -7.536743164e-05 Af1(s/s): -1.455192e-11 week: 146 ******** Week 146 almanac for PRN-4 ******** ID: 4 Health: 0 Eccentricity: 0.001673698425 Time of Applicability(s): 405504 Orbital Inclination(rad): 0.9612091396 Rate of Right Ascen(r/s): -7.863184676e-09 SQRT(A) (m 1/2): 5153.597656 Right Ascen at Week(rad): 0.5795466305 Argument of Perigee(rad): -3.092035638 Mean Anom(rad): -1.710857837 Af0(s): -0.0001522422119 Af1(s/s): 3.637979e-12 week: 146 ******** Week 146 almanac for PRN-5 ******** ID: 5 Health: 0 Eccentricity: 0.005866527557 Time of Applicability(s): 405504 Orbital Inclination(rad): 0.9595373402 Rate of Right Ascen(r/s): -7.771752296e-09 SQRT(A) (m 1/2): 5153.608887 Right Ascen at Week(rad): -0.5414188189 Argument of Perigee(rad): 1.011703398 Mean Anom(rad): -0.8719051677 Af0(s): -5.50182251e-05 Af1(s/s): 0 week: 146 ******** Week 146 almanac for PRN-6 ******** ID: 6 Health: 0 Eccentricity: 0.002653121948 Time of Applicability(s): 405504 Orbital Inclination(rad): 0.9858786666 Rate of Right Ascen(r/s): -7.828897533e-09 SQRT(A) (m 1/2): 5153.616211 Right Ascen at Week(rad): -1.54504485 Argument of Perigee(rad): -0.984083505 Mean Anom(rad): 3.115549811 Af0(s): 0.0001447054687 Af1(s/s): 1.091394e-11 week: 146 ******** Week 146 almanac for PRN-7 ******** ID: 7 Health: 0 Eccentricity: 0.01546573639 Time of Applicability(s): 405504 Orbital Inclination(rad): 0.95057314 Rate of Right Ascen(r/s): -7.920329913e-09 SQRT(A) (m 1/2): 5153.639648 Right Ascen at Week(rad): 1.598822561 Argument of Perigee(rad): -2.293810983 Mean Anom(rad): 2.096702316 Af0(s): 0.0002411757812 Af1(s/s): 3.637979e-12 week: 146 ******** Week 146 almanac for PRN-8 ******** ID: 8 Health: 0 Eccentricity: 0.007207870483 Time of Applicability(s): 405504 Orbital Inclination(rad): 0.9651579417 Rate of Right Ascen(r/s): -8.137481816e-09 SQRT(A) (m 1/2): 5153.663086 Right Ascen at Week(rad): -2.616387369 Argument of Perigee(rad): 0.09002025443 Mean Anom(rad): -1.236109508 Af0(s): -4.220576172e-05 Af1(s/s): 0 week: 146 ******** Week 146 almanac for PRN-9 ******** ID: 9 Health: 0 Eccentricity: 0.002311706543 Time of Applicability(s): 405504 Orbital Inclination(rad): 0.9542343207 Rate of Right Ascen(r/s): -7.943188008e-09 SQRT(A) (m 1/2): 5153.570312 Right Ascen at Week(rad): 0.5267508766 Argument of Perigee(rad): 1.865331125 Mean Anom(rad): -0.8942317787 Af0(s): -0.0002818741943 Af1(s/s): 0 week: 146 ******** Week 146 almanac for PRN-10 ******** ID: 10 Health: 0 Eccentricity: 0.007484436035 Time of Applicability(s): 405504 Orbital Inclination(rad): 0.9723964136 Rate of Right Ascen(r/s): -7.623174678e-09 SQRT(A) (m 1/2): 5153.635254 Right Ascen at Week(rad): -0.504072978 Argument of Perigee(rad): -2.527104144 Mean Anom(rad): 0.7437350058 Af0(s): -0.0002404221069 Af1(s/s): -1.091394e-11 week: 146 ******** Week 146 almanac for PRN-11 ******** ID: 11 Health: 255 Eccentricity: 0.0002903938293 Time of Applicability(s): 405504 Orbital Inclination(rad): 0.9616106111 Rate of Right Ascen(r/s): -8.046049436e-09 SQRT(A) (m 1/2): 5153.716797 Right Ascen at Week(rad): -1.492543084 Argument of Perigee(rad): 2.853046974 Mean Anom(rad): -1.372184764 Af0(s): -6.783068848e-05 Af1(s/s): -4.001777e-11 week: 146 ******** Week 146 almanac for PRN-12 ******** ID: 12 Health: 0 Eccentricity: 0.008622646332 Time of Applicability(s): 405504 Orbital Inclination(rad): 0.9707306063 Rate of Right Ascen(r/s): -7.714607058e-09 SQRT(A) (m 1/2): 5153.570312 Right Ascen at Week(rad): 2.711474329 Argument of Perigee(rad): 1.23860335 Mean Anom(rad): 1.439294551 Af0(s): -0.0001281246338 Af1(s/s): -7.275958e-12 week: 146 ******** Week 146 almanac for PRN-13 ******** ID: 13 Health: 0 Eccentricity: 0.005801677704 Time of Applicability(s): 405504 Orbital Inclination(rad): 0.9686093985 Rate of Right Ascen(r/s): -7.783181343e-09 SQRT(A) (m 1/2): 5153.615723 Right Ascen at Week(rad): 0.679271111 Argument of Perigee(rad): 0.9673580211 Mean Anom(rad): -1.835031634 Af0(s): 0.0001989700195 Af1(s/s): 7.275958e-12 week: 146 ******** Week 146 almanac for PRN-14 ******** ID: 14 Health: 0 Eccentricity: 0.001351356506 Time of Applicability(s): 405504 Orbital Inclination(rad): 0.9541264627 Rate of Right Ascen(r/s): -7.840326581e-09 SQRT(A) (m 1/2): 5153.601074 Right Ascen at Week(rad): 2.680490239 Argument of Perigee(rad): 3.035147646 Mean Anom(rad): 1.484194573 Af0(s): -6.029394531e-05 Af1(s/s): -3.637979e-12 week: 146 ******** Week 146 almanac for PRN-15 ******** ID: 15 Health: 0 Eccentricity: 0.01392412186 Time of Applicability(s): 405504 Orbital Inclination(rad): 0.9301340444 Rate of Right Ascen(r/s): -8.160339911e-09 SQRT(A) (m 1/2): 5153.664551 Right Ascen at Week(rad): 0.4212200391 Argument of Perigee(rad): 1.072874627 Mean Anom(rad): -2.242919597 Af0(s): -7.009171143e-05 Af1(s/s): 3.637979e-12 week: 146 ******** Week 146 almanac for PRN-16 ******** ID: 16 Health: 0 Eccentricity: 0.01270246506 Time of Applicability(s): 405504 Orbital Inclination(rad): 0.9706946536 Rate of Right Ascen(r/s): -7.726036106e-09 SQRT(A) (m 1/2): 5153.552734 Right Ascen at Week(rad): 2.730097814 Argument of Perigee(rad): 0.7000959488 Mean Anom(rad): -0.4162364741 Af0(s): -0.0003647783691 Af1(s/s): -3.637979e-12 week: 146 ******** Week 146 almanac for PRN-17 ******** ID: 17 Health: 0 Eccentricity: 0.01367378235 Time of Applicability(s): 405504 Orbital Inclination(rad): 0.9802161203 Rate of Right Ascen(r/s): -7.988904198e-09 SQRT(A) (m 1/2): 5153.702148 Right Ascen at Week(rad): -2.534792773 Argument of Perigee(rad): -1.503410529 Mean Anom(rad): -1.331032808 Af0(s): 0.0004484362183 Af1(s/s): 3.637979e-12 week: 146 ******** Week 146 almanac for PRN-18 ******** ID: 18 Health: 0 Eccentricity: 0.002094268799 Time of Applicability(s): 405504 Orbital Inclination(rad): 0.9702931821 Rate of Right Ascen(r/s): -7.988904198e-09 SQRT(A) (m 1/2): 5153.57959 Right Ascen at Week(rad): -1.528672526 Argument of Perigee(rad): 3.10815854 Mean Anom(rad): 2.954925244 Af0(s): 0.0001997236938 Af1(s/s): -7.275958e-12 week: 146 ******** Week 146 almanac for PRN-19 ******** ID: 19 Health: 0 Eccentricity: 0.008950233459 Time of Applicability(s): 405504 Orbital Inclination(rad): 0.9789278161 Rate of Right Ascen(r/s): -8.034620388e-09 SQRT(A) (m 1/2): 5153.634766 Right Ascen at Week(rad): -2.48989762 Argument of Perigee(rad): 1.999668294 Mean Anom(rad): 1.074531072 Af0(s): 8.817989502e-05 Af1(s/s): 3.637979e-12 week: 146 ******** Week 146 almanac for PRN-20 ******** ID: 20 Health: 0 Eccentricity: 0.005254268646 Time of Applicability(s): 405504 Orbital Inclination(rad): 0.9416688609 Rate of Right Ascen(r/s): -7.966046103e-09 SQRT(A) (m 1/2): 5153.68457 Right Ascen at Week(rad): -0.6550820766 Argument of Perigee(rad): 3.117160191 Mean Anom(rad): -2.480813952 Af0(s): 0.0004084914795 Af1(s/s): 0 week: 146 ******** Week 146 almanac for PRN-21 ******** ID: 21 Health: 0 Eccentricity: 0.02454900742 Time of Applicability(s): 405504 Orbital Inclination(rad): 0.9590879318 Rate of Right Ascen(r/s): -8.057478483e-09 SQRT(A) (m 1/2): 5153.541992 Right Ascen at Week(rad): -1.627200456 Argument of Perigee(rad): -1.017862541 Mean Anom(rad): -1.160591289 Af0(s): 0.0001243562622 Af1(s/s): 0 week: 146 ******** Week 146 almanac for PRN-22 ******** ID: 22 Health: 255 Eccentricity: 0.01278543472 Time of Applicability(s): 405504 Orbital Inclination(rad): 0.961334974 Rate of Right Ascen(r/s): -7.863184676e-09 SQRT(A) (m 1/2): 5153.589844 Right Ascen at Week(rad): 0.6278449294 Argument of Perigee(rad): -1.876147637 Mean Anom(rad): -1.470804823 Af0(s): 0.0001627936523 Af1(s/s): 1.091394e-11 week: 146 ******** Week 146 almanac for PRN-23 ******** ID: 23 Health: 0 Eccentricity: 0.001976013184 Time of Applicability(s): 405504 Orbital Inclination(rad): 0.9674289523 Rate of Right Ascen(r/s): -7.668890868e-09 SQRT(A) (m 1/2): 5153.655273 Right Ascen at Week(rad): -0.5288282671 Argument of Perigee(rad): 2.941457222 Mean Anom(rad): 2.073074293 Af0(s): 5.275720215e-06 Af1(s/s): -3.637979e-12 week: 146 ******** Week 146 almanac for PRN-24 ******** ID: 24 Health: 0 Eccentricity: 0.01231527328 Time of Applicability(s): 405504 Orbital Inclination(rad): 0.9340648702 Rate of Right Ascen(r/s): -8.080336578e-09 SQRT(A) (m 1/2): 5153.633789 Right Ascen at Week(rad): 1.516361731 Argument of Perigee(rad): 0.8037684825 Mean Anom(rad): 3.063494832 Af0(s): 0.0002185655518 Af1(s/s): 0 week: 146 ******** Week 146 almanac for PRN-25 ******** ID: 25 Health: 0 Eccentricity: 0.01042890549 Time of Applicability(s): 405504 Orbital Inclination(rad): 0.9580992332 Rate of Right Ascen(r/s): -7.817468486e-09 SQRT(A) (m 1/2): 5153.674316 Right Ascen at Week(rad): 2.635005237 Argument of Perigee(rad): 0.9735493713 Mean Anom(rad): 1.198390283 Af0(s): 0.0002185655518 Af1(s/s): 7.275958e-12 week: 146 ******** Week 146 almanac for PRN-26 ******** ID: 26 Health: 0 Eccentricity: 0.006836414337 Time of Applicability(s): 405504 Orbital Inclination(rad): 0.9389304655 Rate of Right Ascen(r/s): -7.988904198e-09 SQRT(A) (m 1/2): 5153.641113 Right Ascen at Week(rad): 2.588378737 Argument of Perigee(rad): 0.3558314865 Mean Anom(rad): 0.5485617915 Af0(s): 0.0001409370972 Af1(s/s): 3.637979e-12 week: 146 ******** Week 146 almanac for PRN-27 ******** ID: 27 Health: 0 Eccentricity: 0.0101146698 Time of Applicability(s): 405504 Orbital Inclination(rad): 0.9738405127 Rate of Right Ascen(r/s): -8.068907531e-09 SQRT(A) (m 1/2): 5153.602539 Right Ascen at Week(rad): -2.597118982 Argument of Perigee(rad): 0.6327708203 Mean Anom(rad): -1.296309266 Af0(s): 7.235273437e-05 Af1(s/s): 1.818989e-11 week: 146 ******** Week 146 almanac for PRN-29 ******** ID: 29 Health: 0 Eccentricity: 0.001790046692 Time of Applicability(s): 405504 Orbital Inclination(rad): 0.9822055016 Rate of Right Ascen(r/s): -8.000333246e-09 SQRT(A) (m 1/2): 5153.714355 Right Ascen at Week(rad): -2.521822846 Argument of Perigee(rad): 2.270266101 Mean Anom(rad): -1.175847582 Af0(s): -0.0003738224609 Af1(s/s): -3.637979e-12 week: 146 ******** Week 146 almanac for PRN-30 ******** ID: 30 Health: 0 Eccentricity: 0.005443572998 Time of Applicability(s): 405504 Orbital Inclination(rad): 0.9357546459 Rate of Right Ascen(r/s): -8.068907531e-09 SQRT(A) (m 1/2): 5153.524414 Right Ascen at Week(rad): 1.612254255 Argument of Perigee(rad): -2.749665058 Mean Anom(rad): 2.120290641 Af0(s): -0.000402462085 Af1(s/s): -3.637979e-12 week: 146 ******** Week 146 almanac for PRN-31 ******** ID: 31 Health: 0 Eccentricity: 0.01047039032 Time of Applicability(s): 405504 Orbital Inclination(rad): 0.9548155556 Rate of Right Ascen(r/s): -7.840326581e-09 SQRT(A) (m 1/2): 5153.622559 Right Ascen at Week(rad): 1.616848333 Argument of Perigee(rad): 0.3705503617 Mean Anom(rad): 1.645009389 Af0(s): -0.0001281246338 Af1(s/s): 0 week: 146 ******** Week 146 almanac for PRN-32 ******** ID: 32 Health: 0 Eccentricity: 0.005478382111 Time of Applicability(s): 405504 Orbital Inclination(rad): 0.9580932411 Rate of Right Ascen(r/s): -7.886042771e-09 SQRT(A) (m 1/2): 5153.707031 Right Ascen at Week(rad): 0.5378699903 Argument of Perigee(rad): -2.368239012 Mean Anom(rad): -0.6271004094 Af0(s): -4.522045898e-05 Af1(s/s): -7.275958e-12 week: 146